Flag for U.S.A. Weather past 2 weeks in Denver, Colorado, U.S.A.

24 °F

Scattered clouds.

Feels Like: 16 °F
Forecast: 20 / 40 °F
Wind: 7 mph from Northwest

Location: Buckley Air Force Base

Current Time: Nov 30, 2015 at 5:44:40 PM

Latest Report: Nov 30, 2015 at 3:58 PM

Visibility: 10 mi

Pressure: 29.98 "Hg (24.48 "Hg at 1593m altitude)

Humidity: 49%

Dew point: 8 °F

Location of DenverLocation

Historic Weather in Denver — Graph


Denver temperature yesterday

Maximum temperature yesterday: 25 °F (at 1:58 PM)
Minimum temperature yesterday: 19 °F (at 1:58 AM)
Average temperature yesterday: 21 °F

Past Weeks' High & Low Weather Summary

High62 °F (Nov 24, 12:58 PM)100% (Nov 16, 4:58 PM)30.60 "Hg (Nov 16, 4:58 PM)
Low5 °F (Nov 27, 5:58 AM)17% (Nov 24, 12:58 PM)29.36 "Hg (Nov 16, 10:58 AM)
Average31 °F66%30.00 "Hg
* Reported Nov 15 3:58 PM — Nov 30 3:58 PM, Denver, Weather by CustomWeather, © 2015

Note: Actual official high and low records may vary slightly from our data, if they occured in-between our weather recording intervals... More about our weather records


Denver weather history for previous 24 hours

Time TempWeatherWind HumidityBarometerVisibility
3:58 PM
Mon, Nov 30
24 °FScattered clouds.7 mph49%29.98 "Hg10 mi
2:58 PM29 °FScattered clouds.16 mph43%29.95 "Hg10 mi
1:58 PM30 °FScattered clouds.9 mph54%29.98 "Hg10 mi
12:58 PM29 °FScattered clouds.7 mph61%29.96 "Hg10 mi
11:58 AM27 °FScattered clouds.5 mph69%29.98 "Hg10 mi
10:58 AM24 °FScattered clouds.5 mph79%30.03 "Hg10 mi
9:58 AM23 °FScattered clouds.3 mph84%30.04 "Hg10 mi
8:58 AM21 °FIce fog.5 mph96%30.06 "Hg6 mi
7:58 AM20 °FIce fog.3 mph99%30.06 "Hg6 mi
6:58 AM20 °FLight snow. Ice fog.1 mph99%30.04 "Hg4 mi
5:58 AM20 °FLight snow. Ice fog.5 mph99%30.02 "Hg4 mi
4:58 AM20 °FLight snow. Ice fog.No wind99%30.03 "Hg2 mi
3:58 AM20 °FLight snow. Ice fog.2 mph99%30.03 "Hg3 mi
2:58 AM21 °FLight snow. Ice fog.5 mph99%30.02 "Hg2 mi
1:58 AM22 °FLight snow. Ice fog.10 mph99%30.02 "Hg2 mi
12:58 AM22 °FLight snow. Ice fog.7 mph99%30.03 "Hg2 mi
11:58 PM
Sun, Nov 29
21 °FLight snow. Ice fog.5 mph98%30.04 "Hg2 mi
9:58 PM21 °FLight snow. Ice fog.No wind99%30.10 "Hg1 mi
8:58 PM21 °FLight snow. Ice fog.1 mph97%30.12 "Hg1 mi
7:58 PM20 °FLight snow. Ice fog.No wind98%30.13 "Hg1 mi
6:58 PM21 °FLight snow. Ice fog.No wind98%30.14 "Hg1 mi
5:58 PM21 °FLight snow. Ice fog.5 mph88%30.14 "Hg2 mi
Weather by CustomWeather, © 2015

See weather overviewHow to use our weather pages